Stations météo

Publicité
Carcassonne, France (7635): Température de l'air & dewpoint: 21.05.2019 05:00:00 - 27.05.2019 05:00:00 (CEST)Carcassonne, France (7635): Température de l'air 5cm: 21.05.2019 05:00:00 - 27.05.2019 05:00:00 (CEST)Carcassonne, France (7635): Température de l'air -20cm & Température de l'air -100cm: 21.05.2019 05:00:00 - 27.05.2019 05:00:00 (CEST)Carcassonne, France (7635): Vitesse du vent & gusts: 21.05.2019 05:00:00 - 27.05.2019 05:00:00 (CEST)Carcassonne, France (7635): Direction du vent: 21.05.2019 05:00:00 - 27.05.2019 05:00:00 (CEST)Carcassonne, France (7635): reduced air pressure: 21.05.2019 05:00:00 - 27.05.2019 05:00:00 (CEST)Carcassonne, France (7635): visibility: 21.05.2019 05:00:00 - 27.05.2019 05:00:00 (CEST)Carcassonne, France (7635): Ensoleillement: 21.05.2019 05:00:00 - 27.05.2019 05:00:00 (CEST)Carcassonne, France (7635): Quantités de précipitations: 21.05.2019 05:00:00 - 27.05.2019 05:00:00 (CEST)
Date & Time tt [°C] td [°C] tt 5cm [°C] tt -20cm [°C] tt -100cm [°C] ff [km/h] ff [knt] fx [km/h] fx [knt] dd ppp [hPa] vv [km] sd [min] rr [mm]
27.05.2019 05:00:00 - - - - - - - - - - - - - -
27.05.2019 04:00:00 14,1 11,8 13,7 16,3 16,1 24 13 48 26 W 1016,6 60 0 0,0
27.05.2019 03:00:00 14,6 12,1 14,2 16,3 16,1 24 13 44 24 W 1017,0 60 0 0,0
27.05.2019 02:00:00 15,3 12,6 14,6 16,4 16,1 27 14 43 23 W 1017,1 47 0 0,0
27.05.2019 01:00:00 15,8 12,4 14,9 16,4 16,2 21 11 35 19 W 1017,3 48 0 0,0
27.05.2019 00:00:00 16,3 12,1 15,7 16,5 16,2 22 12 35 19 W 1017,4 57 0 0,0
26.05.2019 23:00:00 17,0 11,9 15,9 16,5 16,2 22 12 42 23 W 1017,4 60 0 0,0
26.05.2019 22:00:00 17,3 11,8 16,0 16,5 16,2 22 12 43 23 W 1017,0 58 0 0,0
26.05.2019 21:00:00 17,5 12,2 16,4 16,5 16,2 24 13 39 21 W 1016,8 60 7 0,0
26.05.2019 20:00:00 17,6 12,5 17,0 16,5 16,2 22 12 42 23 W 1017,0 55 9 0,0
26.05.2019 19:00:00 17,6 12,7 17,7 16,4 16,2 23 12 50 27 W 1017,4 50 23 0,0
26.05.2019 18:00:00 17,7 12,8 16,9 16,3 16,2 24 13 39 21 W 1017,9 49 3 0,0
26.05.2019 17:00:00 16,4 12,6 15,9 16,2 16,2 22 12 41 22 W 1018,8 51 0 0,0
26.05.2019 16:00:00 15,3 13,0 14,3 16,2 16,2 21 11 46 25 W 1019,5 10 2 0,2
26.05.2019 15:00:00 14,5 12,5 14,0 16,2 16,2 24 13 44 24 WNW 1019,5 10 0 0,0
26.05.2019 14:00:00 14,8 11,8 14,4 16,1 16,2 22 12 48 26 W 1020,2 43 0 0,0
26.05.2019 13:00:00 14,3 11,6 13,4 16,1 16,2 30 16 48 26 W 1020,3 46 0 0,0
26.05.2019 12:00:00 13,3 11,0 12,3 16,1 16,2 24 13 46 25 W 1020,7 44 0 0,0
26.05.2019 11:00:00 13,4 11,3 12,4 16,1 16,2 27 14 50 27 W 1020,9 20 0 0,0
26.05.2019 10:00:00 12,6 11,2 11,8 16,2 16,2 23 12 41 22 W 1020,7 34 0 0,0
26.05.2019 09:00:00 12,4 11,3 11,7 16,3 16,2 21 11 39 21 W 1021,0 11 0 0,4
26.05.2019 08:00:00 12,1 11,3 11,4 16,3 16,2 23 12 40 22 W 1021,0 18 0 0,4
26.05.2019 07:00:00 11,9 11,1 11,3 16,4 16,2 21 12 38 20 W 1021,1 4,7 0 1,6
26.05.2019 06:00:00 12,7 10,4 11,9 16,5 16,2 21 11 39 21 W 1020,7 38 0 0,0
26.05.2019 05:00:00 13,1 10,1 12,7 16,6 16,2 19 10 41 22 W 1020,9 60 0 0,0
26.05.2019 04:00:00 13,2 10,0 12,7 16,7 16,2 24 13 50 27 W 1020,8 60 0 0,0
26.05.2019 03:00:00 13,8 10,4 12,7 16,8 16,2 26 14 51 28 W 1020,8 60 0 0,0
26.05.2019 02:00:00 13,6 11,8 12,6 16,9 16,2 14 8 25 14 W 1020,9 35 0 0,0
26.05.2019 01:00:00 13,9 11,9 12,9 17,0 16,2 16 9 33 18 W 1021,3 37 0 0,0
26.05.2019 00:00:00 14,1 12,0 13,4 17,1 16,2 16 9 28 15 W 1021,2 36 0 0,0
25.05.2019 23:00:00 14,9 12,0 14,0 17,2 16,2 16 9 38 20 W 1021,3 46 0 0,0
25.05.2019 22:00:00 16,0 12,4 15,2 17,2 16,2 23 12 49 26 W 1020,2 50 0 0,0
25.05.2019 21:00:00 16,7 12,4 15,9 17,2 16,2 23 13 44 24 W 1019,3 52 6 0,0
25.05.2019 20:00:00 17,3 12,6 16,8 17,2 16,2 24 13 51 27 W 1019,1 55 15 0,0
25.05.2019 19:00:00 18,0 13,5 14,8 17,2 16,2 23 12 45 24 W 1018,6 43 0 0,4
25.05.2019 18:00:00 17,3 12,8 15,7 17,1 16,2 27 15 48 26 W 1018,9 33 0 0,0
25.05.2019 17:00:00 16,7 13,8 15,3 17,1 16,2 22 12 47 26 W 1018,9 24 0 0,2
25.05.2019 16:00:00 17,4 14,3 17,2 17,0 16,2 13 7 32 18 W 1018,7 30 0 0,0
25.05.2019 15:00:00 15,9 13,4 15,7 17,0 16,2 18 10 40 21 WSW 1019,5 23 0 0,0
25.05.2019 14:00:00 14,8 13,2 14,1 17,0 16,2 17 9 41 22 W 1019,7 19 0 0,0
25.05.2019 13:00:00 14,1 13,1 13,6 17,1 16,2 19 11 39 21 W 1020,0 16 0 0,0
25.05.2019 12:00:00 13,8 12,9 13,3 17,1 16,2 21 11 38 20 W 1019,8 44 0 0,0
25.05.2019 11:00:00 13,5 12,7 13,4 17,1 16,2 20 11 42 23 W 1019,6 8 0 0,0
25.05.2019 10:00:00 13,7 12,9 13,6 17,2 16,2 24 13 44 24 W 1019,1 19 0 0,0
25.05.2019 09:00:00 13,8 13,2 13,3 17,3 16,2 26 14 40 22 W 1018,5 20 0 0,2
25.05.2019 08:00:00 13,6 13,0 13,3 17,3 16,2 23 12 41 22 W 1018,0 7 0 1,2
25.05.2019 07:00:00 13,9 13,3 13,4 17,4 16,2 24 13 46 25 W 1017,4 9 0 0,2
25.05.2019 06:00:00 14,0 13,4 13,4 17,5 16,2 24 13 39 21 W 1017,1 11 0 0,2
25.05.2019 05:00:00 13,9 13,3 13,3 17,6 16,2 21 11 40 21 W 1016,9 20 0 0,2
25.05.2019 04:00:00 13,9 13,3 13,4 17,7 16,2 18 10 40 22 W 1017,2 18 0 0,2
25.05.2019 03:00:00 13,9 13,3 13,4 17,8 16,2 23 13 38 20 W 1017,1 13 0 0,4
25.05.2019 02:00:00 14,0 13,4 13,5 17,9 16,1 21 11 38 20 W 1017,2 11 0 0,4
25.05.2019 01:00:00 14,1 13,3 13,4 18,0 16,2 14 8 35 19 W 1017,5 15 0 0,8
25.05.2019 00:00:00 14,0 13,0 13,3 18,1 16,1 21 11 40 21 W 1017,5 13 0 0,6
24.05.2019 23:00:00 14,0 13,0 13,4 18,2 16,1 19 11 35 19 W 1017,6 10 0 0,6
24.05.2019 22:00:00 14,2 13,1 13,5 18,3 16,1 15 8 32 18 W 1017,1 26 0 0,0
24.05.2019 21:00:00 14,3 13,3 13,7 18,4 16,1 18 10 35 19 W 1017,0 24 0 0,2
24.05.2019 20:00:00 15,0 14,0 14,4 18,4 16,1 16 9 35 19 W 1016,8 18 0 0,4
24.05.2019 19:00:00 14,9 13,9 14,5 18,4 16,1 15 8 31 17 W 1016,6 14 0 0,4
24.05.2019 18:00:00 14,7 13,6 14,5 18,4 16,1 19 10 34 19 W 1016,7 19 0 0,4
24.05.2019 17:00:00 14,5 13,2 14,4 18,5 16,1 18 10 39 21 W 1016,8 22 0 0,4
24.05.2019 16:00:00 14,1 13,0 13,7 18,6 16,1 19 10 39 21 W 1017,0 42 0 0,2
24.05.2019 15:00:00 14,3 13,2 14,0 18,6 16,0 19 10 39 21 W 1017,0 16 0 0,4
24.05.2019 14:00:00 14,4 13,3 14,3 18,7 16,0 21 11 40 22 W 1017,1 13 0 0,7
24.05.2019 13:00:00 14,3 13,5 13,9 18,7 16,0 18 10 41 22 W 1017,5 12 0 1,4
24.05.2019 12:00:00 14,1 13,3 14,2 18,8 16,0 20 11 36 19 W 1017,6 8 0 1,2
24.05.2019 11:00:00 14,1 13,3 13,8 18,9 16,0 19 10 33 18 W 1017,5 16 0 1,4
24.05.2019 10:00:00 14,2 13,4 13,8 19,0 16,0 16 9 31 17 W 1017,6 8 0 1,0
24.05.2019 09:00:00 14,6 13,3 14,1 19,1 16,0 18 10 33 18 W 1017,3 12 0 0,6
24.05.2019 08:00:00 15,0 13,2 14,6 19,2 15,9 14 8 31 17 WSW 1017,1 14 0 0,0
24.05.2019 07:00:00 15,0 13,0 14,6 19,4 15,9 16 8 31 17 W 1017,1 22 0 0,0
24.05.2019 06:00:00 15,0 12,7 14,6 19,6 15,9 16 8 36 19 W 1017,0 27 0 0,0
24.05.2019 05:00:00 15,1 12,0 14,7 19,8 16,0 24 13 41 22 W 1016,9 26 0 0,0
24.05.2019 04:00:00 16,3 12,8 15,8 20,0 15,9 22 12 36 19 W 1016,7 32 0 0,0
24.05.2019 03:00:00 17,2 12,3 16,7 20,1 15,9 22 12 37 20 W 1016,5 37 0 0,0
24.05.2019 02:00:00 18,2 12,0 17,5 20,3 15,9 16 9 41 22 W 1016,9 31 0 0,0
24.05.2019 01:00:00 19,4 13,3 18,7 20,5 15,9 22 12 42 23 W 1016,9 36 0 0,0
24.05.2019 00:00:00 20,1 10,8 16,9 20,7 15,9 14 8 27 15 W 1016,4 60 0 0,0
23.05.2019 23:00:00 19,2 11,2 15,1 20,8 15,9 8 4 14 8 W 1016,3 60 0 0,0
23.05.2019 22:00:00 19,5 10,8 15,2 21,0 15,9 5 3 10 5 W 1015,7 60 0 0,0
23.05.2019 21:00:00 20,9 11,0 17,4 21,1 15,9 4 2 17 9 W 1015,3 60 3 0,0
23.05.2019 20:00:00 24,0 9,9 23,4 21,0 15,8 12 6 22 12 NW 1014,5 56 0 0,0
23.05.2019 19:00:00 25,1 9,4 25,5 21,0 15,9 16 9 30 16 WNW 1014,2 59 5 0,0
23.05.2019 18:00:00 26,0 8,0 27,9 20,7 15,8 18 10 31 17 W 1014,3 58 60 0,0
23.05.2019 17:00:00 26,8 8,2 30,5 20,3 15,8 21 11 33 18 W 1014,4 56 60 0,0
23.05.2019 16:00:00 27,1 6,5 31,3 19,8 15,8 16 9 32 17 W 1014,7 60 60 0,0
23.05.2019 15:00:00 26,8 6,8 31,8 19,2 15,8 13 7 24 13 WNW 1015,2 60 60 0,0
23.05.2019 14:00:00 26,2 5,7 32,4 18,6 15,8 11 6 29 16 WNW 1015,6 20 60 0,0
23.05.2019 13:00:00 25,1 8,6 32,2 18,1 15,8 7 4 21 11 NW 1016,2 60 60 0,0
23.05.2019 12:00:00 24,2 10,8 29,3 17,7 15,8 4 2 13 7 ENE 1016,8 53 60 0,0
23.05.2019 11:00:00 22,2 9,7 24,8 17,5 15,7 5 3 10 6 NNW 1017,3 18 60 0,0
23.05.2019 10:00:00 19,0 10,5 19,8 17,5 15,7 4 2 9 5 W 1017,8 36 60 0,0
23.05.2019 09:00:00 15,9 11,1 13,1 17,6 15,7 4 2 9 5 WNW 1018,0 40 60 0,0
23.05.2019 08:00:00 13,4 10,4 7,7 17,8 15,7 0 0 5 3 N 1017,9 25 51 0,0
23.05.2019 07:00:00 9,9 9,4 5,8 18,1 15,7 3 2 7 4 S 1017,8 29 17 0,0
23.05.2019 06:00:00 9,1 8,3 5,9 18,3 15,7 0 0 5 3 N 1017,5 19 0 0,0
23.05.2019 05:00:00 9,8 8,1 6,4 18,5 15,7 2 1 18 10 S 1017,5 44 0 0,0
23.05.2019 04:00:00 10,1 8,4 7,0 18,8 15,7 4 2 9 5 S 1017,6 46 0 0,0
23.05.2019 03:00:00 11,2 8,9 7,7 19,0 15,7 3 2 16 9 W 1017,5 52 0 0,0
23.05.2019 02:00:00 13,2 9,4 10,4 19,2 15,7 9 5 19 10 S 1017,8 53 0 0,0
23.05.2019 01:00:00 13,8 9,6 9,2 19,4 15,7 6 4 14 8 SSE 1017,9 58 0 0,0
23.05.2019 00:00:00 15,2 10,0 10,3 19,6 15,7 3 2 11 6 SW 1018,0 60 0 0,0
22.05.2019 23:00:00 15,9 10,0 11,3 19,9 15,7 7 4 16 8 W 1018,0 60 0 0,0
22.05.2019 22:00:00 18,7 9,7 13,9 20,0 15,6 9 5 16 8 WSW 1017,3 60 0 0,0
22.05.2019 21:00:00 20,1 10,5 17,1 20,1 15,7 8 5 20 11 W 1016,9 60 50 0,0
22.05.2019 20:00:00 23,8 9,4 24,6 20,0 15,6 14 8 26 14 NW 1016,3 60 60 0,0
22.05.2019 19:00:00 24,8 9,1 27,8 19,9 15,6 16 9 26 14 NNW 1016,2 53 60 0,0
22.05.2019 18:00:00 25,0 8,0 29,3 19,6 15,6 19 11 34 18 NW 1016,4 19 60 0,0
22.05.2019 17:00:00 25,4 8,0 29,4 19,1 15,6 15 8 34 19 NNW 1016,6 39 60 0,0
22.05.2019 16:00:00 24,5 8,0 29,8 18,7 15,6 16 9 34 19 WNW 1016,8 20 60 0,0
22.05.2019 15:00:00 24,3 10,6 29,7 18,1 15,6 20 11 37 20 WNW 1017,3 35 60 0,0
22.05.2019 14:00:00 23,0 10,8 28,7 17,6 15,6 21 11 37 20 W 1017,9 33 60 0,0
22.05.2019 13:00:00 21,9 10,1 26,8 17,2 15,6 22 12 37 20 W 1018,4 34 60 0,0
22.05.2019 12:00:00 20,5 10,6 24,9 16,8 15,6 24 13 38 21 W 1018,9 37 60 0,0
22.05.2019 11:00:00 19,9 11,4 21,5 16,7 15,6 23 13 34 19 W 1019,1 40 60 0,0
22.05.2019 10:00:00 18,0 11,1 17,5 16,7 15,6 21 11 35 19 W 1019,2 19 60 0,0
22.05.2019 09:00:00 15,5 10,3 13,8 16,8 15,6 19 10 36 19 W 1019,3 37 60 0,0
22.05.2019 08:00:00 13,3 9,5 10,2 17,0 15,6 13 7 25 14 W 1019,4 39 60 0,0
22.05.2019 07:00:00 11,1 9,0 6,8 17,2 15,6 11 6 22 12 W 1019,1 29 12 0,0
22.05.2019 06:00:00 10,5 8,8 6,5 17,3 15,6 6 4 12 6 W 1018,9 16 0 0,0
22.05.2019 05:00:00 11,4 9,3 7,2 17,5 15,6 8 4 13 7 WSW 1018,7 33 0 0,0
22.05.2019 04:00:00 12,0 8,7 8,9 17,7 15,6 2 1 24 13 W 1018,8 33 0 0,0
22.05.2019 03:00:00 13,7 9,5 12,7 17,9 15,6 13 7 24 13 W 1018,7 35 0 0,0
22.05.2019 02:00:00 13,8 9,8 11,3 18,1 15,6 10 5 21 11 W 1018,6 34 0 0,0
22.05.2019 01:00:00 14,2 9,8 12,7 18,2 15,5 11 6 22 12 W 1018,8 38 0 0,0
22.05.2019 00:00:00 14,8 10,0 13,5 18,4 15,6 13 7 22 12 W 1018,7 47 0 0,0
21.05.2019 23:00:00 15,3 9,6 13,5 18,6 15,6 12 6 23 12 W 1018,7 60 0 0,0
21.05.2019 22:00:00 16,9 9,6 15,3 18,8 15,6 16 9 35 19 NW 1017,9 60 0 0,0
21.05.2019 21:00:00 18,3 9,9 16,4 18,8 15,6 11 6 31 17 NW 1017,0 59 50 0,0
21.05.2019 20:00:00 20,5 9,1 20,9 18,8 15,5 20 11 40 21 WNW 1016,2 42 51 0,0
21.05.2019 19:00:00 21,7 8,6 24,3 18,7 15,6 21 12 39 21 WNW 1015,7 31 60 0,0
21.05.2019 18:00:00 22,0 9,2 25,7 18,4 15,5 21 12 40 22 WNW 1015,8 29 60 0,0
21.05.2019 17:00:00 21,8 10,0 24,7 18,1 15,6 23 12 42 23 NW 1016,2 30 60 0,0
21.05.2019 16:00:00 21,4 9,6 25,3 17,6 15,5 25 13 44 24 W 1016,6 32 60 0,0
21.05.2019 15:00:00 20,8 10,3 28,1 17,1 15,6 24 13 43 23 WNW 1017,0 33 60 0,0
21.05.2019 14:00:00 20,2 10,3 21,5 16,7 15,6 26 14 41 22 WNW 1017,1 20 47 0,0
21.05.2019 13:00:00 19,7 10,7 20,7 16,4 15,6 23 13 39 21 WNW 1017,4 38 31 0,0
21.05.2019 12:00:00 18,0 10,6 21,7 16,1 15,5 24 13 48 26 WNW 1017,3 20 57 0,0
21.05.2019 11:00:00 16,7 11,0 17,7 16,0 15,6 27 15 40 21 W 1017,5 19 42 0,0
21.05.2019 10:00:00 14,7 11,1 15,1 15,9 15,5 23 12 38 20 W 1017,7 19 50 0,0
21.05.2019 09:00:00 13,1 10,5 12,7 16,0 15,5 20 11 30 16 W 1017,7 36 35 0,0
21.05.2019 08:00:00 11,6 10,2 9,8 16,1 15,6 16 9 25 13 W 1017,3 18 29 0,0
21.05.2019 07:00:00 10,3 9,2 9,2 16,3 15,5 13 7 23 12 W 1016,9 20 14 0,0
21.05.2019 06:00:00 10,2 9,1 9,1 16,4 15,6 13 7 29 16 W 1016,6 20 0 0,0
21.05.2019 05:00:00 10,2 9,0 8,8 16,6 15,6 12 7 23 12 W 1016,5 29 0 0,0

tt = Température de l'air
td = dewpoint
tt 5cm = Température de l'air 5cm
tt -20cm = Température de l'air -20cm
tt -100cm = Température de l'air -100cm
ff = Vitesse du vent
fx = gusts
dd = Direction du vent
ppp = reduced air pressure
vv = visibility
sd = Ensoleillement
rr = Quantités de précipitations

stations d'obs. à proximité